| time (UTC) | temp C | wind direction | speed KPH | gust KPH | rain 1hr cm | rain 24hr cm | rain mn cm | humidity % | barometer mb |
| 20260906214325 | 32 | 107 | 4.8 | 17.7 | 0.00 | 0.00 | 0.00 | 30 | 1017.1 |
| 20260906213825 | 32 | 134 | 8.0 | 17.7 | 0.00 | 0.00 | 0.00 | 30 | 1017.2 |
| 20260906213327 | 32 | 143 | 4.8 | 14.5 | 0.00 | 0.00 | 0.00 | 31 | 1017.3 |
| 20260906212849 | 32 | 174 | 3.2 | 16.1 | 0.00 | 0.00 | 0.00 | 31 | 1017.3 |
| 20260906212350 | 32 | 103 | 8.0 | 16.1 | 0.00 | 0.00 | 0.00 | 31 | 1017.5 |
| 20260906211828 | 32 | 131 | 8.0 | 24.1 | 0.00 | 0.00 | 0.00 | 32 | 1017.5 |
| 20260906211330 | 32 | 145 | 14.5 | 24.1 | 0.00 | 0.00 | 0.00 | 32 | 1017.5 |
| 20260906210849 | 32 | 126 | 8.0 | 22.5 | 0.00 | 0.00 | 0.00 | 31 | 1017.6 |
| 20260906210328 | 32 | 200 | 11.3 | 22.5 | 0.00 | 0.00 | 0.00 | 30 | 1017.7 |
| 20260906205828 | 32 | 163 | 6.4 | 20.9 | 0.00 | 0.00 | 0.00 | 30 | 1017.8 |
| 20260906205329 | 32 | 150 | 9.7 | 25.7 | 0.00 | 0.00 | 0.00 | 31 | 1017.8 |
| 20260906204831 | 32 | 178 | 4.8 | 25.7 | 0.00 | 0.00 | 0.00 | 32 | 1017.8 |
| 20260906204332 | 32 | 78 | 6.4 | 16.1 | 0.00 | 0.00 | 0.00 | 32 | 1017.8 |
| 20260906203835 | 32 | 163 | 6.4 | 17.7 | 0.00 | 0.00 | 0.00 | 30 | 1018.0 |
| 20260906203314 | 32 | 161 | 6.4 | 17.7 | 0.00 | 0.00 | 0.00 | 32 | 1018.0 |
| 20260906202816 | 31 | 96 | 4.8 | 12.9 | 0.00 | 0.00 | 0.00 | 32 | 1018.0 |
| 20260906202316 | 32 | 109 | 4.8 | 12.9 | 0.00 | 0.00 | 0.00 | 32 | 1018.2 |
| 20260906201839 | 31 | 124 | 6.4 | 12.9 | 0.00 | 0.00 | 0.00 | 32 | 1018.2 |
| 20260906201317 | 31 | 149 | 4.8 | 11.3 | 0.00 | 0.00 | 0.00 | 32 | 1018.3 |
| 20260906200819 | 31 | 151 | 6.4 | 12.9 | 0.00 | 0.00 | 0.00 | 31 | 1018.4 |
| 20260906200320 | 31 | 150 | 4.8 | 12.9 | 0.00 | 0.00 | 0.00 | 32 | 1018.5 |
| 20260906195819 | 31 | 148 | 4.8 | 16.1 | 0.00 | 0.00 | 0.00 | 33 | 1018.6 |
| 20260906195321 | 31 | 154 | 6.4 | 16.1 | 0.00 | 0.00 | 0.00 | 33 | 1018.6 |
| 20260906194821 | 31 | 171 | 4.8 | 11.3 | 0.00 | 0.00 | 0.00 | 32 | 1018.6 |
| 20260906194323 | 31 | 167 | 6.4 | 19.3 | 0.00 | 0.00 | 0.00 | 33 | 1018.6 |
| 20260906193824 | 30 | 165 | 8.0 | 19.3 | 0.00 | 0.00 | 0.00 | 33 | 1018.8 |
| 20260906193325 | 30 | 97 | 0.0 | 14.5 | 0.00 | 0.00 | 0.00 | 35 | 1018.9 |
| 20260906192826 | 30 | 102 | 4.8 | 16.1 | 0.00 | 0.00 | 0.00 | 35 | 1018.9 |
| 20260906192346 | 30 | 99 | 4.8 | 19.3 | 0.00 | 0.00 | 0.00 | 35 | 1019.0 |
| 20260906191845 | 30 | 100 | 9.7 | 17.7 | 0.00 | 0.00 | 0.00 | 35 | 1019.1 |
| 20260906191325 | 30 | 111 | 6.4 | 16.1 | 0.00 | 0.00 | 0.00 | 35 | 1019.2 |
| 20260906190826 | 30 | 155 | 6.4 | 12.9 | 0.00 | 0.00 | 0.00 | 36 | 1019.3 |
| 20260906190326 | 29 | 163 | 4.8 | 12.9 | 0.00 | 0.00 | 0.00 | 36 | 1019.4 |
| 20260906185828 | 29 | 283 | 4.8 | 12.9 | 0.00 | 0.00 | 0.00 | 37 | 1019.5 |
| 20260906185327 | 28 | 296 | 4.8 | 12.9 | 0.00 | 0.00 | 0.00 | 38 | 1019.6 |
| 20260906184830 | 28 | 291 | 4.8 | 11.3 | 0.00 | 0.00 | 0.00 | 39 | 1019.7 |
| 20260906184351 | 28 | 285 | 3.2 | 8.0 | 0.00 | 0.00 | 0.00 | 40 | 1019.8 |
| 20260906183831 | 28 | 284 | 3.2 | 8.0 | 0.00 | 0.00 | 0.00 | 39 | 1020.0 |
| 20260906183330 | 28 | 284 | 4.8 | 8.0 | 0.00 | 0.00 | 0.00 | 37 | 1020.0 |
| 20260906182829 | 28 | 279 | 1.6 | 6.4 | 0.00 | 0.00 | 0.00 | 38 | 1020.2 |
| 20260906182348 | 28 | 279 | 3.2 | 8.0 | 0.00 | 0.00 | 0.00 | 40 | 1020.3 |
| 20260906181825 | 28 | 279 | 1.6 | 8.0 | 0.00 | 0.00 | 0.00 | 39 | 1020.4 |
| 20260906181327 | 27 | 279 | 3.2 | 6.4 | 0.00 | 0.00 | 0.00 | 40 | 1020.5 |
| 20260906180828 | 27 | 279 | 4.8 | 6.4 | 0.00 | 0.00 | 0.00 | 42 | 1020.7 |
| 20260906180328 | 27 | 278 | 1.6 | 8.0 | 0.00 | 0.00 | 0.00 | 43 | 1020.7 |
| 20260906175828 | 27 | 279 | 4.8 | 8.0 | 0.00 | 0.00 | 0.00 | 44 | 1020.8 |
| 20260906175330 | 27 | 277 | 4.8 | 8.0 | 0.00 | 0.00 | 0.00 | 45 | 1020.9 |
| 20260906174830 | 26 | 277 | 3.2 | 8.0 | 0.00 | 0.00 | 0.00 | 45 | 1021.0 |
| 20260906174332 | 26 | 277 | 3.2 | 8.0 | 0.00 | 0.00 | 0.00 | 46 | 1021.1 |
| 20260906173815 | 26 | 279 | 0.0 | 8.0 | 0.00 | 0.00 | 0.00 | 47 | 1021.2 |
| 20260906173318 | 26 | 279 | 4.8 | 8.0 | 0.00 | 0.00 | 0.00 | 47 | 1021.3 |
| 20260906172838 | 26 | 276 | 1.6 | 6.4 | 0.00 | 0.00 | 0.00 | 47 | 1021.3 |
| 20260906172316 | 26 | 275 | 3.2 | 8.0 | 0.00 | 0.00 | 0.00 | 48 | 1021.4 |
| 20260906171817 | 25 | 275 | 4.8 | 8.0 | 0.00 | 0.00 | 0.00 | 48 | 1021.5 |
| 20260906171317 | 25 | 276 | 1.6 | 11.3 | 0.00 | 0.00 | 0.00 | 49 | 1021.6 |
| 20260906170818 | 25 | 276 | 4.8 | 11.3 | 0.00 | 0.00 | 0.00 | 50 | 1021.7 |
| 20260906170319 | 25 | 273 | 0.0 | 9.7 | 0.00 | 0.00 | 0.00 | 49 | 1021.9 |
| 20260906165821 | 25 | 273 | 1.6 | 12.9 | 0.00 | 0.00 | 0.00 | 54 | 1021.8 |
| 20260906165320 | 25 | 273 | 4.8 | 12.9 | 0.00 | 0.00 | 0.00 | 52 | 1021.9 |
| 20260906164822 | 24 | 272 | 6.4 | 11.3 | 0.00 | 0.00 | 0.00 | 56 | 1021.9 |
| 20260906164325 | 24 | 265 | 3.2 | 11.3 | 0.00 | 0.00 | 0.00 | 58 | 1021.9 |
| 20260906163845 | 24 | 259 | 3.2 | 6.4 | 0.00 | 0.00 | 0.00 | 57 | 1021.9 |
| 20260906163326 | 24 | 258 | 3.2 | 4.8 | 0.00 | 0.00 | 0.00 | 59 | 1021.9 |
| 20260906162847 | 23 | 257 | 1.6 | 9.7 | 0.00 | 0.00 | 0.00 | 60 | 1021.8 |
| 20260906162326 | 23 | 258 | 3.2 | 9.7 | 0.00 | 0.00 | 0.00 | 59 | 1021.9 |
| 20260906161827 | 23 | 258 | 1.6 | 6.4 | 0.00 | 0.00 | 0.00 | 63 | 1021.9 |
| 20260906161330 | 22 | 258 | 3.2 | 6.4 | 0.00 | 0.00 | 0.00 | 64 | 1021.9 |
| 20260906160848 | 22 | 258 | 1.6 | 6.4 | 0.00 | 0.00 | 0.00 | 66 | 1021.8 |
| 20260906160313 | 22 | 257 | 3.2 | 9.7 | 0.00 | 0.00 | 0.00 | 66 | 1021.9 |
| 20260906155813 | 22 | 258 | 3.2 | 11.3 | 0.00 | 0.00 | 0.00 | 67 | 1021.9 |
| 20260906155331 | 22 | 258 | 4.8 | 11.3 | 0.00 | 0.00 | 0.00 | 68 | 1021.9 |
| 20260906154853 | 22 | 259 | 4.8 | 12.9 | 0.00 | 0.00 | 0.00 | 68 | 1021.9 |
| 20260906154354 | 22 | 259 | 4.8 | 12.9 | 0.00 | 0.00 | 0.00 | 69 | 1021.9 |
| 20260906153832 | 21 | 261 | 4.8 | 11.3 | 0.00 | 0.00 | 0.00 | 70 | 1021.9 |
| 20260906153313 | 21 | 257 | 3.2 | 11.3 | 0.00 | 0.00 | 0.00 | 70 | 1022.0 |
| 20260906152815 | 21 | 254 | 3.2 | 8.0 | 0.00 | 0.00 | 0.00 | 72 | 1022.0 |
| 20260906152317 | 21 | 254 | 3.2 | 9.7 | 0.00 | 0.00 | 0.00 | 72 | 1022.1 |
| 20260906151838 | 20 | 255 | 3.2 | 9.7 | 0.00 | 0.00 | 0.00 | 73 | 1022.1 |
| 20260906151320 | 20 | 255 | 1.6 | 6.4 | 0.00 | 0.00 | 0.00 | 74 | 1022.1 |
| 20260906150821 | 20 | 255 | 1.6 | 6.4 | 0.00 | 0.00 | 0.00 | 74 | 1022.1 |
| 20260906150321 | 20 | 255 | 3.2 | 9.7 | 0.00 | 0.00 | 0.00 | 74 | 1022.1 |
| 20260906145822 | 20 | 255 | 3.2 | 11.3 | 0.00 | 0.00 | 0.00 | 74 | 1022.1 |
| 20260906145324 | 20 | 253 | 4.8 | 11.3 | 0.00 | 0.00 | 0.00 | 74 | 1022.0 |
| 20260906144827 | 20 | 254 | 4.8 | 9.7 | 0.00 | 0.00 | 0.00 | 75 | 1021.9 |
| 20260906144328 | 20 | 254 | 1.6 | 9.7 | 0.00 | 0.00 | 0.00 | 76 | 1021.9 |
| 20260906143830 | 20 | 254 | 3.2 | 9.7 | 0.00 | 0.00 | 0.00 | 76 | 1021.9 |
| 20260906143353 | 19 | 255 | 1.6 | 9.7 | 0.00 | 0.00 | 0.00 | 78 | 1021.9 |
| 20260906142814 | 19 | 254 | 4.8 | 11.3 | 0.00 | 0.00 | 0.00 | 79 | 1021.9 |
| 20260906142314 | 18 | 253 | 3.2 | 11.3 | 0.00 | 0.00 | 0.00 | 79 | 1021.9 |
| 20260906141814 | 18 | 254 | 3.2 | 8.0 | 0.00 | 0.00 | 0.00 | 79 | 1022.1 |
| 20260906141316 | 18 | 254 | 3.2 | 11.3 | 0.00 | 0.00 | 0.00 | 79 | 1022.1 |
| 20260906140817 | 18 | 254 | 3.2 | 11.3 | 0.00 | 0.00 | 0.00 | 80 | 1022.0 |
| 20260906140337 | 18 | 253 | 1.6 | 8.0 | 0.00 | 0.00 | 0.00 | 81 | 1021.9 |
| 20260906135818 | 18 | 253 | 4.8 | 11.3 | 0.00 | 0.00 | 0.00 | 81 | 1022.0 |
| 20260906135318 | 18 | 253 | 3.2 | 11.3 | 0.00 | 0.00 | 0.00 | 82 | 1021.9 |
| 20260906134819 | 17 | 252 | 1.6 | 8.0 | 0.00 | 0.00 | 0.00 | 81 | 1021.9 |
| 20260906134340 | 17 | 252 | 3.2 | 8.0 | 0.00 | 0.00 | 0.00 | 81 | 1021.9 |
| 20260906133818 | 17 | 252 | 1.6 | 8.0 | 0.00 | 0.00 | 0.00 | 81 | 1021.7 |
| 20260906133320 | 17 | 252 | 1.6 | 4.8 | 0.00 | 0.00 | 0.00 | 81 | 1021.8 |
| 20260906132821 | 17 | 252 | 0.0 | 3.2 | 0.00 | 0.00 | 0.00 | 81 | 1021.7 |
| 20260906132322 | 17 | 251 | 0.0 | 6.4 | 0.00 | 0.00 | 0.00 | 82 | 1021.7 |
| 20260906131826 | 16 | 358 | 1.6 | 6.4 | 0.00 | 0.00 | 0.00 | 82 | 1021.7 |
| 20260906131327 | 16 | 252 | 1.6 | 4.8 | 0.00 | 0.00 | 0.00 | 83 | 1021.7 |
| 20260906130829 | 16 | 252 | 0.0 | 4.8 | 0.00 | 0.00 | 0.00 | 83 | 1021.6 |
| 20260906130330 | 16 | 358 | 1.6 | 3.2 | 0.00 | 0.00 | 0.00 | 83 | 1021.5 |
| 20260906125813 | 16 | 358 | 0.0 | 3.2 | 0.00 | 0.00 | 0.00 | 83 | 1021.5 |
| 20260906125314 | 16 | 358 | 0.0 | 1.6 | 0.00 | 0.00 | 0.00 | 82 | 1021.6 |
| 20260906124814 | 16 | 358 | 0.0 | 1.6 | 0.00 | 0.00 | 0.00 | 82 | 1021.6 |
| 20260906124317 | 16 | 358 | 0.0 | 3.2 | 0.00 | 0.00 | 0.00 | 82 | 1021.5 |
| 20260906123820 | 16 | 358 | 0.0 | 4.8 | 0.00 | 0.00 | 0.00 | 82 | 1021.3 |
| 20260906123322 | 16 | 358 | 0.0 | 3.2 | 0.00 | 0.00 | 0.00 | 81 | 1021.3 |
| 20260906122825 | 16 | 358 | 0.0 | 3.2 | 0.00 | 0.00 | 0.00 | 80 | 1021.2 |
| 20260906122328 | 16 | 358 | 0.0 | 6.4 | 0.00 | 0.00 | 0.00 | 80 | 1021.3 |
| 20260906121829 | 16 | 358 | 1.6 | 6.4 | 0.00 | 0.00 | 0.00 | 80 | 1021.3 |
| 20260906121330 | 16 | 358 | 0.0 | 3.2 | 0.00 | 0.00 | 0.00 | 79 | 1021.3 |
| 20260906120812 | 16 | 358 | 0.0 | 1.6 | 0.00 | 0.00 | 0.00 | 78 | 1021.3 |
| 20260906120314 | 16 | 358 | 0.0 | 0.0 | 0.00 | 0.00 | 0.00 | 77 | 1021.3 |
| 20260906115816 | 16 | 358 | 0.0 | 1.6 | 0.00 | 0.00 | 0.00 | 76 | 1021.3 |
| 20260906115339 | 16 | 358 | 0.0 | 1.6 | 0.00 | 0.00 | 0.00 | 76 | 1021.2 |
| 20260906114820 | 16 | 358 | 0.0 | 0.0 | 0.00 | 0.00 | 0.00 | 75 | 1021.2 |
| 20260906114323 | 16 | 358 | 0.0 | 0.0 | 0.00 | 0.00 | 0.00 | 74 | 1021.3 |
| 20260906113824 | 16 | 358 | 0.0 | 0.0 | 0.00 | 0.00 | 0.00 | 74 | 1021.3 |
| 20260906113326 | 16 | 358 | 0.0 | 0.0 | 0.00 | 0.00 | 0.00 | 73 | 1021.3 |
| 20260906112827 | 16 | 358 | 0.0 | 0.0 | 0.00 | 0.00 | 0.00 | 73 | 1021.1 |
| 20260906112348 | 16 | 358 | 0.0 | 0.0 | 0.00 | 0.00 | 0.00 | 73 | 1021.1 |
| 20260906111847 | 16 | 358 | 0.0 | 0.0 | 0.00 | 0.00 | 0.00 | 72 | 1021.3 |
| 20260906111328 | 16 | 358 | 0.0 | 0.0 | 0.00 | 0.00 | 0.00 | 72 | 1021.2 |
| 20260906110830 | 16 | 358 | 0.0 | 0.0 | 0.00 | 0.00 | 0.00 | 72 | 1021.1 |
| 20260906110330 | 17 | 358 | 0.0 | 0.0 | 0.00 | 0.00 | 0.00 | 72 | 1021.2 |
| 20260906105830 | 17 | 358 | 0.0 | 0.0 | 0.00 | 0.00 | 0.00 | 72 | 1021.3 |
| 20260906105313 | 17 | 358 | 0.0 | 0.0 | 0.00 | 0.00 | 0.00 | 70 | 1021.0 |
| 20260906104814 | 17 | 252 | 0.0 | 0.0 | 0.00 | 0.00 | 0.00 | 70 | 1020.9 |
| 20260906104315 | 17 | 358 | 0.0 | 0.0 | 0.00 | 0.00 | 0.00 | 70 | 1020.8 |
| 20260906103817 | 17 | 358 | 0.0 | 0.0 | 0.00 | 0.00 | 0.00 | 70 | 1020.8 |
| 20260906103319 | 17 | 358 | 0.0 | 0.0 | 0.00 | 0.00 | 0.00 | 70 | 1020.8 |
| 20260906102821 | 17 | 358 | 0.0 | 0.0 | 0.00 | 0.00 | 0.00 | 69 | 1020.7 |
| 20260906102322 | 17 | 358 | 0.0 | 0.0 | 0.00 | 0.00 | 0.00 | 69 | 1020.7 |
| 20260906101824 | 17 | 358 | 0.0 | 0.0 | 0.00 | 0.00 | 0.00 | 69 | 1020.7 |
| 20260906101325 | 17 | 358 | 0.0 | 0.0 | 0.00 | 0.00 | 0.00 | 69 | 1020.7 |
| 20260906100827 | 17 | 358 | 0.0 | 0.0 | 0.00 | 0.00 | 0.00 | 69 | 1020.7 |
| 20260906100329 | 17 | 358 | 0.0 | 0.0 | 0.00 | 0.00 | 0.00 | 68 | 1020.8 |
| 20260906095831 | 17 | 358 | 0.0 | 0.0 | 0.00 | 0.00 | 0.00 | 67 | 1020.7 |
| 20260906095330 | 18 | 358 | 0.0 | 0.0 | 0.00 | 0.00 | 0.00 | 67 | 1020.7 |
| 20260906094832 | 18 | 358 | 0.0 | 0.0 | 0.00 | 0.00 | 0.00 | 66 | 1020.8 |
| 20260906094332 | 18 | 358 | 0.0 | 0.0 | 0.00 | 0.00 | 0.00 | 66 | 1020.8 |
| 20260906093813 | 18 | 358 | 0.0 | 0.0 | 0.00 | 0.00 | 0.00 | 65 | 1020.7 |
| 20260906093315 | 18 | 358 | 0.0 | 0.0 | 0.00 | 0.00 | 0.00 | 65 | 1020.7 |
| 20260906092836 | 18 | 358 | 0.0 | 0.0 | 0.00 | 0.00 | 0.00 | 65 | 1020.7 |
| 20260906092318 | 18 | 358 | 0.0 | 0.0 | 0.00 | 0.00 | 0.00 | 64 | 1020.7 |
| 20260906091818 | 18 | 358 | 0.0 | 0.0 | 0.00 | 0.00 | 0.00 | 64 | 1020.6 |
| 20260906091318 | 18 | 358 | 0.0 | 0.0 | 0.00 | 0.00 | 0.00 | 63 | 1020.7 |
| 20260906090818 | 18 | 358 | 0.0 | 0.0 | 0.00 | 0.00 | 0.00 | 62 | 1020.7 |
| 20260906090318 | 18 | 358 | 0.0 | 0.0 | 0.00 | 0.00 | 0.00 | 62 | 1020.6 |
| 20260906085820 | 19 | 358 | 0.0 | 0.0 | 0.00 | 0.00 | 0.00 | 61 | 1020.5 |
| 20260906085337 | 19 | 358 | 0.0 | 0.0 | 0.00 | 0.00 | 0.00 | 61 | 1020.4 |
| 20260906084837 | 19 | 252 | 0.0 | 0.0 | 0.00 | 0.00 | 0.00 | 60 | 1020.5 |
| 20260906084319 | 20 | 252 | 0.0 | 0.0 | 0.00 | 0.00 | 0.00 | 60 | 1020.5 |
| 20260906083840 | 20 | 252 | 0.0 | 0.0 | 0.00 | 0.00 | 0.00 | 59 | 1020.5 |
| 20260906083320 | 20 | 252 | 0.0 | 0.0 | 0.00 | 0.00 | 0.00 | 58 | 1020.6 |
| 20260906082822 | 20 | 252 | 0.0 | 0.0 | 0.00 | 0.00 | 0.00 | 58 | 1020.6 |
| 20260906082325 | 20 | 252 | 0.0 | 0.0 | 0.00 | 0.00 | 0.00 | 58 | 1020.6 |
| 20260906081826 | 20 | 252 | 0.0 | 0.0 | 0.00 | 0.00 | 0.00 | 57 | 1020.7 |
| 20260906081327 | 20 | 252 | 0.0 | 0.0 | 0.00 | 0.00 | 0.00 | 57 | 1020.8 |
| 20260906080849 | 20 | 252 | 0.0 | 0.0 | 0.00 | 0.00 | 0.00 | 57 | 1020.8 |
| 20260906080329 | 20 | 252 | 0.0 | 0.0 | 0.00 | 0.00 | 0.00 | 56 | 1020.8 |
| 20260906075831 | 21 | 252 | 0.0 | 0.0 | 0.00 | 0.00 | 0.00 | 55 | 1020.8 |
| 20260906075313 | 21 | 252 | 0.0 | 0.0 | 0.00 | 0.00 | 0.00 | 54 | 1020.7 |
| 20260906074815 | 21 | 252 | 0.0 | 0.0 | 0.00 | 0.00 | 0.00 | 52 | 1020.7 |
| 20260906074317 | 21 | 252 | 0.0 | 0.0 | 0.00 | 0.00 | 0.00 | 51 | 1020.6 |
| 20260906073819 | 21 | 252 | 0.0 | 0.0 | 0.00 | 0.00 | 0.00 | 50 | 1020.7 |
| 20260906073321 | 21 | 252 | 0.0 | 0.0 | 0.00 | 0.00 | 0.00 | 50 | 1020.6 |
| 20260906072843 | 22 | 252 | 0.0 | 1.6 | 0.00 | 0.00 | 0.00 | 50 | 1020.3 |
| 20260906072320 | 22 | 252 | 0.0 | 1.6 | 0.00 | 0.00 | 0.00 | 49 | 1020.2 |
| 20260906071822 | 22 | 252 | 0.0 | 1.6 | 0.00 | 0.00 | 0.00 | 48 | 1020.1 |
| 20260906071324 | 22 | 252 | 0.0 | 3.2 | 0.00 | 0.00 | 0.00 | 48 | 1020.0 |
| 20260906070828 | 22 | 252 | 0.0 | 4.8 | 0.00 | 0.00 | 0.00 | 47 | 1019.9 |
| 20260906070331 | 22 | 358 | 3.2 | 8.0 | 0.00 | 0.00 | 0.00 | 47 | 1019.9 |
| 20260906065814 | 22 | 358 | 3.2 | 8.0 | 0.00 | 0.00 | 0.00 | 45 | 1019.9 |
| 20260906065317 | 23 | 358 | 3.2 | 16.1 | 0.00 | 0.00 | 0.00 | 45 | 1019.8 |
| 20260906064819 | 23 | 252 | 6.4 | 16.1 | 0.00 | 0.00 | 0.00 | 45 | 1019.8 |
| 20260906064321 | 23 | 250 | 3.2 | 12.9 | 0.00 | 0.00 | 0.00 | 45 | 1019.8 |
| 20260906063823 | 22 | 249 | 6.4 | 12.9 | 0.00 | 0.00 | 0.00 | 46 | 1019.8 |
| 20260906063345 | 22 | 248 | 4.8 | 6.4 | 0.00 | 0.00 | 0.00 | 48 | 1019.8 |
| 20260906062828 | 22 | 248 | 0.0 | 8.0 | 0.00 | 0.00 | 0.00 | 48 | 1019.8 |
| 20260906062348 | 23 | 248 | 3.2 | 12.9 | 0.00 | 0.00 | 0.00 | 50 | 1020.0 |
| 20260906061828 | 23 | 247 | 6.4 | 12.9 | 0.00 | 0.00 | 0.00 | 48 | 1020.1 |
| 20260906061353 | 23 | 246 | 1.6 | 20.9 | 0.00 | 0.00 | 0.00 | 51 | 1020.2 |
| 20260906060832 | 23 | 358 | 3.2 | 22.5 | 0.00 | 0.00 | 0.00 | 47 | 1020.3 |
| 20260906060313 | 24 | 243 | 9.7 | 22.5 | 0.00 | 0.00 | 0.00 | 40 | 1020.8 |
| 20260906055816 | 24 | 329 | 8.0 | 14.5 | 0.00 | 0.00 | 0.00 | 39 | 1021.0 |
| 20260906055320 | 23 | 353 | 6.4 | 9.7 | 0.00 | 0.00 | 0.00 | 40 | 1020.9 |
| 20260906054823 | 23 | 353 | 4.8 | 12.9 | 0.00 | 0.00 | 0.00 | 40 | 1020.8 |
| 20260906054325 | 23 | 353 | 3.2 | 8.0 | 0.00 | 0.00 | 0.00 | 41 | 1020.6 |
| 20260906053849 | 23 | 353 | 0.0 | 1.6 | 0.00 | 0.00 | 0.00 | 42 | 1020.6 |
| 20260906053332 | 23 | 353 | 0.0 | 0.0 | 0.00 | 0.00 | 0.00 | 42 | 1020.4 |
| 20260906052816 | 23 | 353 | 0.0 | 1.6 | 0.00 | 0.00 | 0.00 | 42 | 1020.5 |
| 20260906052318 | 23 | 353 | 0.0 | 1.6 | 0.00 | 0.00 | 0.00 | 42 | 1020.5 |
| 20260906051842 | 23 | 353 | 0.0 | 6.4 | 0.00 | 0.00 | 0.00 | 41 | 1020.6 |
| 20260906051326 | 23 | 353 | 0.0 | 6.4 | 0.00 | 0.00 | 0.00 | 41 | 1020.6 |
| 20260906050829 | 23 | 353 | 1.6 | 4.8 | 0.00 | 0.00 | 0.00 | 41 | 1020.6 |
| 20260906050313 | 23 | 353 | 0.0 | 1.6 | 0.00 | 0.00 | 0.00 | 41 | 1020.6 |
| 20260906045836 | 23 | 353 | 0.0 | 1.6 | 0.00 | 0.00 | 0.00 | 40 | 1020.7 |
| 20260906045317 | 23 | 353 | 0.0 | 1.6 | 0.00 | 0.00 | 0.00 | 40 | 1020.8 |
| 20260906044820 | 23 | 353 | 0.0 | 0.0 | 0.00 | 0.00 | 0.00 | 40 | 1020.8 |
| 20260906044324 | 24 | 348 | 0.0 | 0.0 | 0.00 | 0.00 | 0.00 | 39 | 1020.8 |
| 20260906043827 | 24 | 353 | 0.0 | 0.0 | 0.00 | 0.00 | 0.00 | 39 | 1020.8 |
| 20260906043329 | 25 | 353 | 0.0 | 0.0 | 0.00 | 0.00 | 0.00 | 38 | 1020.8 |
| 20260906042831 | 25 | 353 | 0.0 | 0.0 | 0.00 | 0.00 | 0.00 | 36 | 1021.1 |
| 20260906042314 | 25 | 353 | 0.0 | 0.0 | 0.00 | 0.00 | 0.00 | 37 | 1021.0 |
| 20260906041816 | 25 | 353 | 0.0 | 3.2 | 0.00 | 0.00 | 0.00 | 36 | 1021.0 |
| 20260906041319 | 25 | 353 | 0.0 | 8.0 | 0.00 | 0.00 | 0.00 | 35 | 1020.9 |
| 20260906040822 | 25 | 353 | 0.0 | 12.9 | 0.00 | 0.00 | 0.00 | 35 | 1020.7 |
| 20260906040346 | 25 | 353 | 4.8 | 12.9 | 0.00 | 0.00 | 0.00 | 35 | 1020.6 |
| 20260906035827 | 25 | 353 | 4.8 | 12.9 | 0.00 | 0.00 | 0.00 | 35 | 1020.5 |
| 20260906035330 | 25 | 353 | 6.4 | 8.0 | 0.00 | 0.00 | 0.00 | 35 | 1020.4 |
| 20260906034812 | 25 | 353 | 0.0 | 3.2 | 0.00 | 0.00 | 0.00 | 35 | 1020.0 |
| 20260906034314 | 25 | 353 | 0.0 | 3.2 | 0.00 | 0.00 | 0.00 | 35 | 1019.9 |
| 20260906033837 | 25 | 353 | 0.0 | 4.8 | 0.00 | 0.00 | 0.00 | 35 | 1019.9 |
| 20260906033318 | 25 | 353 | 1.6 | 4.8 | 0.00 | 0.00 | 0.00 | 34 | 1019.9 |
| 20260906032842 | 25 | 353 | 1.6 | 4.8 | 0.00 | 0.00 | 0.00 | 34 | 1020.0 |
| 20260906032323 | 25 | 349 | 0.0 | 4.8 | 0.00 | 0.00 | 0.00 | 34 | 1019.9 |
| 20260906031826 | 26 | 349 | 0.0 | 3.2 | 0.00 | 0.00 | 0.00 | 33 | 1019.8 |
| 20260906031349 | 26 | 353 | 0.0 | 1.6 | 0.00 | 0.00 | 0.00 | 33 | 1019.7 |
| 20260906030812 | 26 | 353 | 0.0 | 1.6 | 0.00 | 0.00 | 0.00 | 32 | 1019.5 |
| 20260906030313 | 26 | 353 | 0.0 | 4.8 | 0.00 | 0.00 | 0.00 | 32 | 1019.5 |
| 20260906025816 | 26 | 353 | 1.6 | 9.7 | 0.00 | 0.00 | 0.00 | 31 | 1019.5 |
| 20260906025318 | 26 | 353 | 3.2 | 9.7 | 0.00 | 0.00 | 0.00 | 31 | 1019.4 |
| 20260906024822 | 27 | 349 | 1.6 | 4.8 | 0.00 | 0.00 | 0.00 | 31 | 1019.4 |
| 20260906024343 | 27 | 349 | 1.6 | 3.2 | 0.00 | 0.00 | 0.00 | 31 | 1019.3 |
| 20260906023825 | 27 | 349 | 0.0 | 8.0 | 0.00 | 0.00 | 0.00 | 31 | 1019.3 |
| 20260906023313 | 27 | 349 | 3.2 | 12.9 | 0.00 | 0.00 | 0.00 | 30 | 1019.3 |
| 20260906022817 | 27 | 349 | 3.2 | 12.9 | 0.00 | 0.00 | 0.00 | 30 | 1019.3 |
| 20260906022335 | 27 | 349 | 1.6 | 6.4 | 0.00 | 0.00 | 0.00 | 30 | 1019.3 |
| 20260906021816 | 27 | 349 | 0.0 | 1.6 | 0.00 | 0.00 | 0.00 | 29 | 1019.2 |
| 20260906021340 | 28 | 349 | 0.0 | 1.6 | 0.00 | 0.00 | 0.00 | 29 | 1019.2 |
| 20260906020823 | 28 | 349 | 0.0 | 1.6 | 0.00 | 0.00 | 0.00 | 29 | 1019.1 |
| 20260906020325 | 28 | 349 | 0.0 | 3.2 | 0.00 | 0.00 | 0.00 | 28 | 1019.0 |
| 20260906015847 | 28 | 349 | 0.0 | 8.0 | 0.00 | 0.00 | 0.00 | 27 | 1018.9 |
| 20260906015329 | 28 | 349 | 1.6 | 12.9 | 0.00 | 0.00 | 0.00 | 27 | 1018.9 |
| 20260906014813 | 28 | 349 | 6.4 | 16.1 | 0.00 | 0.00 | 0.00 | 26 | 1018.8 |
| 20260906014316 | 28 | 20 | 3.2 | 6.4 | 0.00 | 0.00 | 0.00 | 26 | 1018.6 |
| 20260906013819 | 28 | 21 | 0.0 | 0.0 | 0.00 | 0.00 | 0.00 | 26 | 1018.5 |
| 20260906013323 | 29 | 21 | 0.0 | 1.6 | 0.00 | 0.00 | 0.00 | 26 | 1018.2 |
| 20260906012825 | 29 | 21 | 0.0 | 1.6 | 0.00 | 0.00 | 0.00 | 26 | 1018.3 |
| 20260906012328 | 30 | 21 | 0.0 | 1.6 | 0.00 | 0.00 | 0.00 | 25 | 1018.2 |
| 20260906011831 | 30 | 21 | 0.0 | 1.6 | 0.00 | 0.00 | 0.00 | 25 | 1018.2 |
| 20260906011313 | 30 | 21 | 0.0 | 0.0 | 0.00 | 0.00 | 0.00 | 24 | 1018.2 |
| 20260906010816 | 31 | 21 | 0.0 | 3.2 | 0.00 | 0.00 | 0.00 | 24 | 1018.2 |
| 20260906010318 | 31 | 21 | 0.0 | 1.6 | 0.00 | 0.00 | 0.00 | 23 | 1018.2 |
| 20260906005842 | 31 | 21 | 0.0 | 3.2 | 0.00 | 0.00 | 0.00 | 23 | 1018.2 |
| 20260906005329 | 31 | 21 | 0.0 | 3.2 | 0.00 | 0.00 | 0.00 | 22 | 1018.2 |
| 20260906004831 | 31 | 21 | 0.0 | 3.2 | 0.00 | 0.00 | 0.00 | 22 | 1018.2 |
| 20260906004312 | 32 | 21 | 0.0 | 6.4 | 0.00 | 0.00 | 0.00 | 22 | 1018.2 |
| 20260906003815 | 32 | 21 | 3.2 | 6.4 | 0.00 | 0.00 | 0.00 | 21 | 1018.2 |
| 20260906003316 | 32 | 21 | 3.2 | 6.4 | 0.00 | 0.00 | 0.00 | 21 | 1018.2 |
| 20260906002818 | 32 | 21 | 3.2 | 8.0 | 0.00 | 0.00 | 0.00 | 20 | 1018.1 |
| 20260906002320 | 32 | 21 | 0.0 | 4.8 | 0.00 | 0.00 | 0.00 | 21 | 1018.0 |
| 20260906001821 | 32 | 21 | 1.6 | 8.0 | 0.00 | 0.00 | 0.00 | 21 | 1018.0 |
| 20260906001321 | 32 | 21 | 3.2 | 8.0 | 0.00 | 0.00 | 0.00 | 20 | 1017.9 |
| 20260906000822 | 33 | 22 | 3.2 | 12.9 | 0.00 | 0.00 | 0.00 | 20 | 1018.0 |
| 20260906000323 | 33 | 21 | 3.2 | 12.9 | 0.00 | 0.00 | 0.00 | 20 | 1017.9 |
| 20260905235825 | 33 | 12 | 4.8 | 8.0 | 0.00 | 0.00 | 0.00 | 20 | 1017.9 |
| 20260905235327 | 33 | 13 | 1.6 | 4.8 | 0.00 | 0.00 | 0.00 | 20 | 1017.9 |
| 20260905234829 | 33 | 13 | 0.0 | 8.0 | 0.00 | 0.00 | 0.00 | 20 | 1017.9 |
| 20260905234330 | 33 | 13 | 3.2 | 8.0 | 0.00 | 0.00 | 0.00 | 19 | 1017.9 |
| 20260905233831 | 33 | 11 | 1.6 | 6.4 | 0.00 | 0.00 | 0.00 | 21 | 1017.9 |
| 20260905233332 | 33 | 11 | 3.2 | 9.7 | 0.00 | 0.00 | 0.00 | 20 | 1017.9 |
| 20260905232812 | 33 | 11 | 3.2 | 16.1 | 0.00 | 0.00 | 0.00 | 20 | 1017.9 |
| 20260905232335 | 33 | 12 | 8.0 | 16.1 | 0.00 | 0.00 | 0.00 | 20 | 1017.9 |
| 20260905231833 | 33 | 7 | 6.4 | 14.5 | 0.00 | 0.00 | 0.00 | 20 | 1017.8 |
| 20260905231313 | 33 | 7 | 8.0 | 14.5 | 0.00 | 0.00 | 0.00 | 20 | 1017.8 |
| 20260905230813 | 33 | 9 | 4.8 | 16.1 | 0.00 | 0.00 | 0.00 | 20 | 1017.8 |
| 20260905230316 | 33 | 12 | 8.0 | 16.1 | 0.00 | 0.00 | 0.00 | 20 | 1017.8 |
| 20260905225818 | 33 | 344 | 3.2 | 12.9 | 0.00 | 0.00 | 0.00 | 20 | 1017.8 |
| 20260905225319 | 33 | 345 | 4.8 | 8.0 | 0.00 | 0.00 | 0.00 | 20 | 1017.7 |
| 20260905224842 | 33 | 345 | 1.6 | 9.7 | 0.00 | 0.00 | 0.00 | 21 | 1017.8 |
| 20260905224343 | 33 | 346 | 3.2 | 9.7 | 0.00 | 0.00 | 0.00 | 21 | 1017.7 |
| 20260905223823 | 33 | 345 | 1.6 | 17.7 | 0.00 | 0.00 | 0.00 | 21 | 1017.7 |
| 20260905223344 | 33 | 345 | 11.3 | 17.7 | 0.00 | 0.00 | 0.00 | 20 | 1017.9 |
| 20260905222825 | 33 | 353 | 4.8 | 14.5 | 0.00 | 0.00 | 0.00 | 20 | 1017.8 |
| 20260905222326 | 33 | 358 | 4.8 | 12.9 | 0.00 | 0.00 | 0.00 | 20 | 1017.9 |
| 20260905221827 | 33 | 3 | 4.8 | 9.7 | 0.00 | 0.00 | 0.00 | 20 | 1017.9 |
| 20260905221329 | 33 | 9 | 4.8 | 14.5 | 0.00 | 0.00 | 0.00 | 20 | 1018.0 |
| 20260905220849 | 33 | 9 | 1.6 | 14.5 | 0.00 | 0.00 | 0.00 | 20 | 1018.0 |
| 20260905220331 | 33 | 10 | 8.0 | 16.1 | 0.00 | 0.00 | 0.00 | 20 | 1018.0 |
| 20260905215812 | 33 | 13 | 6.4 | 16.1 | 0.00 | 0.00 | 0.00 | 20 | 1018.1 |
| 20260905215314 | 33 | 25 | 1.6 | 19.3 | 0.00 | 0.00 | 0.00 | 20 | 1018.2 |
| 20260905214816 | 33 | 24 | 9.7 | 19.3 | 0.00 | 0.00 | 0.00 | 19 | 1018.2 |